TimeEDT,TemperatureF,Dew PointF,Humidity,Sea Level PressureIn,VisibilityMPH,Wind Direction,Wind SpeedMPH,Gust SpeedMPH,PrecipitationIn,Events,Conditions,WindDirDegrees,DateUTC
12:56 AM,64.0,63.0,96,30.07,4.0,ENE,11.5,-,N/A,,Overcast,70,2013-04-04 04:56:00
1:56 AM,64.0,63.0,96,30.06,5.0,ENE,9.2,-,0.02,,Overcast,70,2013-04-04 05:56:00
2:56 AM,64.9,63.0,93,30.03,5.0,East,8.1,-,0.01,Rain,Light Rain,90,2013-04-04 06:56:00
3:56 AM,64.9,62.1,90,30.00,10.0,East,10.4,-,0.00,,Overcast,80,2013-04-04 07:56:00
4:07 AM,64.4,62.6,94,30.00,9.0,East,11.5,-,N/A,,Overcast,80,2013-04-04 08:07:00
4:56 AM,64.0,63.0,96,29.98,5.0,East,4.6,-,0.01,Rain,Light Rain,80,2013-04-04 08:56:00
5:07 AM,64.4,62.6,94,29.97,7.0,East,6.9,-,0.01,Rain,Light Rain,80,2013-04-04 09:07:00
5:56 AM,64.9,63.0,93,29.98,8.0,ENE,6.9,-,0.01,,Overcast,60,2013-04-04 09:56:00
6:24 AM,64.4,62.6,94,29.98,8.0,East,8.1,-,0.00,,Overcast,90,2013-04-04 10:24:00
6:44 AM,64.4,62.6,94,29.98,7.0,East,5.8,-,0.00,,Overcast,80,2013-04-04 10:44:00
6:56 AM,64.9,63.0,93,29.98,7.0,East,5.8,-,0.00,,Overcast,80,2013-04-04 10:56:00
7:56 AM,66.0,64.0,93,29.97,7.0,East,11.5,17.3,0.00,Rain,Light Rain,90,2013-04-04 11:56:00
8:56 AM,66.9,64.9,93,29.97,7.0,East,4.6,-,0.00,,Overcast,90,2013-04-04 12:56:00
9:09 AM,66.2,64.4,94,29.96,6.0,East,5.8,-,N/A,,Overcast,90,2013-04-04 13:09:00
9:56 AM,69.1,66.9,93,29.96,6.0,SE,3.5,-,N/A,,Overcast,130,2013-04-04 13:56:00
10:56 AM,71.1,66.9,87,29.96,8.0,South,6.9,-,N/A,,Overcast,180,2013-04-04 14:56:00
11:14 AM,71.6,68.0,88,29.95,9.0,South,6.9,-,N/A,,Overcast,180,2013-04-04 15:14:00
11:56 AM,73.9,66.9,79,29.94,10.0,SSW,6.9,-,N/A,,Overcast,200,2013-04-04 15:56:00
12:29 PM,75.2,66.2,73,29.93,10.0,SSW,10.4,-,N/A,,Overcast,210,2013-04-04 16:29:00
12:56 PM,77.0,66.9,71,29.93,10.0,SSW,11.5,-,N/A,,Overcast,210,2013-04-04 16:56:00
1:27 PM,78.8,64.4,61,29.91,10.0,SW,15.0,21.9,N/A,,Overcast,230,2013-04-04 17:27:00
1:56 PM,78.1,64.0,62,29.90,10.0,SW,15.0,25.3,N/A,,Overcast,220,2013-04-04 17:56:00
2:17 PM,77.0,64.4,65,29.90,10.0,SW,13.8,23.0,N/A,,Overcast,220,2013-04-04 18:17:00
2:56 PM,73.0,66.0,79,29.91,10.0,SW,10.4,-,0.03,,Overcast,230,2013-04-04 18:56:00
3:56 PM,75.0,64.0,69,29.87,10.0,SW,15.0,-,N/A,,Overcast,220,2013-04-04 19:56:00
4:56 PM,75.0,63.0,66,29.86,10.0,SW,17.3,24.2,N/A,,Overcast,220,2013-04-04 20:56:00
5:56 PM,73.9,63.0,68,29.87,10.0,WSW,16.1,-,N/A,,Overcast,240,2013-04-04 21:56:00
6:56 PM,73.0,63.0,71,29.87,10.0,SW,13.8,-,N/A,,Mostly Cloudy,230,2013-04-04 22:56:00
7:56 PM,71.1,63.0,75,29.86,10.0,WSW,9.2,-,N/A,,Mostly Cloudy,240,2013-04-04 23:56:00
8:56 PM,68.0,63.0,84,29.89,10.0,SW,6.9,-,N/A,,Mostly Cloudy,220,2013-04-05 00:56:00
9:56 PM,66.0,63.0,90,29.91,10.0,WSW,3.5,-,N/A,,Mostly Cloudy,240,2013-04-05 01:56:00
10:56 PM,64.9,63.0,93,29.91,10.0,SW,4.6,-,N/A,,Mostly Cloudy,230,2013-04-05 02:56:00
11:56 PM,64.9,62.1,90,29.90,10.0,WNW,3.5,-,N/A,,Mostly Cloudy,290,2013-04-05 03:56:00